Simultaneous Nadir Overpasses (SNOs) Predictions

Prediction of SNOs between LANDSAT-8 and METOP-B Satellite Orbit:

Table of predicted SNOs for the next 14.0 days since TLE Epoch: 10/15/2016
Index Date (LANDSAT-8) Time (LANDSAT-8) Lat,Lon (LANDSAT-8) SZA (LANDSAT-8 ) Date (METOP-B) Time (METOP-B) Lat,Lon (METOP-B) SZA (METOP-B ) Distance(km) Time Diff (sec)
1 10/17/2016 11:57:32 81.07, 39.79 92.89 10/17/2016 11:56:38 81.07, 39.71 92.85 1.40 54
2 10/17/2016 12:46:58 -81.09,-152.27 87.06 10/17/2016 12:47:17 -81.09,-152.35 87.06 1.48 19
3 10/20/2016 07:31:47 81.09, 106.46 93.95 10/20/2016 07:31:00 81.09, 106.61 93.94 2.58 47
4 10/20/2016 08:21:13 -81.11, -85.57 86.00 10/20/2016 08:21:39 -81.11, -85.44 85.97 2.24 26
5 10/23/2016 03:06:03 81.07, 172.70 94.92 10/23/2016 03:05:24 81.08, 172.72 94.91 0.55 39
6
